STARLINK-35886

Last updated on Mon Dec 15 2025 00:02:12 GMT+0000 (Coordinated Universal Time)

1 66838U 25280T 25348.25003472 -.01662909 00000+0 -12961-1 0 9997 2 66838 69.9933 194.5026 0003646 271.7546 61.6488 15.74289701 3145
UTC large
Height (km)
Speed (km/s)
/
Latitude / Longitude
Inclination (degrees)
Orbital Period (minutes)
Azimuth
Elevation
Range (km)
Doppler Factor

Next 0 passes for location: London (51.5072 / 0.1276)

Sorry there are no passes over London.